Location: Bucquoy
(50.1391°N, 2.7097°E)
Time: 08:26:17
(UTC+00:00)

Cosmos 1758 - Pass Details

Date: 06 May 2021
Orbit: 538 x 563 km, 82.5° (Epoch: 21 June)

Event Time Altitude Azimuth Distance (km) Brightness Sun altitude
Rises 02:44:43 0° 342° (NNW) 2,769 7.3 -12.6°
Reaches altitude 10° 02:47:02 10° 334° (NNW) 1,868 6.3 -12.3°
Maximum altitude 02:50:46 34° 269° (W) 935 4.1 -11.9°
Enters shadow 02:53:27 16° 211° (SSW) 1,484 4.9 -11.6°
